Regional Weather Roundup
Issued by NWS Wakefield, VA

Home | Current Version | Previous Version | Text Only | Print | Product List | Glossary Off
Versions: 1 2 3 4 5 6 7 8 9 10 11 12 13 14 15 16 17 18 19 20 21 22 23 24 25 26 27 28 29 30 31 32 33 34 35 36 37 38 39 40 41 42 43 44 45 46 47 48 49 50

000
ASUS41 KAKQ 280910
RWRAKQ

REGIONAL WEATHER ROUNDUP
NATIONAL WEATHER SERVICE WAKEFIELD VA
400 AM EST WED JAN 28 2015

Note: "fair" indicates few or no clouds below 12,000 feet with no
significant weather and/or obstructions to visibility. * = Denotes
station may not report precipitation (e.g., rain,snow,etc.),
thunder or fog.

VAZ042-051-052>054-056-281000-
NORTHERN VIRGINIA

CITY           SKY/WX    TMP DP  RH WIND       PRES   REMARKS
WASH NATIONAL  PTCLDY    26  10  50 NW12G20   30.09R WCI  16
DULLES         PTCLDY    22  10  60 NW15G23   30.07R WCI   9
FORT BELVOIR   CLEAR     24  11  56 NW13G26   30.09R WCI  13
QUANTICO       CLEAR     26  11  52 N12G24    30.10R WCI  16
FREDERICKSBRG* CLEAR     27  13  56 N10       30.08R WCI  18
STAFFORD*      CLEAR     24  11  56 NW13G22   30.12R WCI  13
WARRENTON      CLEAR     26  17  68 NW12      30.07R WCI  15
CULPEPER*      CLEAR     27  12  54 N8        30.07S
MANASSAS*      CLEAR     25  14  63 NW14      30.09R WCI  13
LEESBURG*      CLEAR     23  14  68 N16G25    30.09R WCI  10
WINCHESTER     CLEAR     23   9  54 NW12      30.09S WCI  12
FRONT ROYAL*   FAIR      21  12  68 CALM      30.08S
LURAY*         FAIR      25  14  63 CALM      30.09R
$$

VAZ048-049-060>072-079>083-281000-
CENTRAL AND SOUTH CENTRAL VIRGINIA

CITY           SKY/WX    TMP DP  RH WIND       PRES   REMARKS
RICHMOND       PTCLDY    29  12  49 N13G25    30.06R WCI  19
CHESTERFIELD*  FAIR      28   7  40 N8        30.06R
PETERSBURG*    CLEAR     29  20  69 NW5       30.06R
HANOVER        CLEAR     27  10  49 N8G17     30.08R
TAPPAHANNOCK*  CLEAR     28  11  48 NW7       30.06R
QUINTON*       FAIR      28  13  54 N10G17    30.05R WCI  18
CHARLOTTSVILLE PTCLDY    28  11  48 NW13G20   30.06R WCI  17
GORDONSVILLE*  FAIR      24  15  67 NW5       30.06R
ORANGE*        CLEAR     28  12  50 NW3       30.08R
LOUISA*        CLEAR     19  18  93 E3        30.05R
BUMPASS*       FAIR      27  12  53 N3        30.06R
FARMVILLE*     PTCLDY    28  16  61 N3        30.05R
CREWE*         FAIR      27  16  63 NW6       30.05R
FORT PICKETT*  FAIR      26  17  68 NW6       30.05R
CHASE CITY*    FAIR      29  18  64 CALM      30.06R
CLARKSVILLE*   CLOUDY    28  16  59 NW3       30.06R
SOUTH HILL*    MOCLDY    28  16  61 NW3       30.10R
LAWRENCEVILLE* FAIR      29  18  65 CALM      30.04R
EMPORIA*       CLEAR     28  19  69 W5        30.07R
$$

VAZ088>098-281000-
SOUTHEAST VIRGINIA

CITY           SKY/WX    TMP DP  RH WIND       PRES   REMARKS
NORFOLK        PTCLDY    31  16  54 N10G21    30.01R WCI  22
VIRGINIA BEACH PTCLDY    32  18  56 N20       30.00R WCI  20
NORFOLK NAVAL  PTCLDY    32  16  51 NW15      30.04R WCI  22
WEST POINT*    CLEAR     30  15  53 NW8       30.06S
SALUDA*        FAIR      28  16  59 NW16G22   30.03R WCI  16
NEWPORT NEWS   CLEAR     31  15  52 N13G25    30.03R WCI  21
LANGLEY AFB    CLEAR     29  15  57 N14G21    30.02R WCI  18
FORT EUSTIS    CLEAR     29  18  63 N12G20    30.01R WCI  20
WILLIAMSBURG*    N/A     30  18  59 N10G18    30.04R WCI  21
HR EXEC AP*    FAIR      28  16  59 N8G16     30.05R
FRANKLIN*      CLOUDY    29  15  55 N7        30.05R
WAKEFIELD      CLEAR     30  14  51 N8        30.05R
$$

VAZ020-022-025-037-045-281000-
WEST CENTRAL AND SOUTHWEST VIRGINIA

CITY           SKY/WX    TMP DP  RH WIND       PRES   REMARKS
STAUNTON*      CLEAR     19  13  77 CALM      30.10R
WAYNESBORO*    FAIR      20  12  69 NW8       30.05S
HOT SPRINGS VA FAIR      11   9  89 W20       29.90R WCI  -7
LYNCHBURG      CLEAR     25  12  58 NW8       30.07R
DANVILLE       PTCLDY    27  13  55 N9        30.09R
SOUTH BOSTON*  FAIR      27  13  56 NW5       30.08R
MARTINSVILLE   CLEAR     26  15  61 N8        30.10R
ROANOKE        PTCLDY    24  11  57 NW9       30.12R
BLACKSBURG     PTCLDY    18  11  74 W6        30.10R
DUBLIN*        MOCLDY    22  15  75 NW8       30.10R
MARION*        FLURRIES  20  13  73 W16       30.11R WCI   6
HILLSVILLE*    PTCLDY    19  13  79 NW14G23   30.02R WCI   5
RICHLANDS*     LGT SNOW  17  12  78 NW5       30.10R
WISE*          PTCLDY    18  12  79 NW3       30.12R
ABINGDON*      PTCLDY    21  14  75 NW3       30.15R
$$

MDZ021>025-VAZ099-100-281000-
SOUTHERN MARYLAND AND THE DELMARVA PENINSULA

CITY           SKY/WX    TMP DP  RH WIND       PRES   REMARKS
PATUXENT RIVER CLEAR     27  13  55 NW20G25   30.04R WCI  13
BAY BRIDGE APT   N/A     27  10  50 NW14G23   30.06R WCI  15
LEONARDTOWN    CLEAR     27  12  54 NW7G16    30.06R
DOVER          CLEAR     20   9  62 NW17      30.01R WCI   5
GEORGETOWN     CLEAR     22   9  57 N9        30.01R
EASTON         CLEAR     26  12  55 N14       30.07R WCI  14
CAMBRIDGE      CLEAR     30  12  47 N16G25    30.02R WCI  19
SALISBURY      CLEAR     26  11  52 N15       30.01R WCI  14
OCEAN CITY     CLEAR     24  11  57 N16G25    29.99R WCI  11
WALLOPS ISLAND CLEAR     26  12  55 N13G23    30.00R WCI  15
ACCOMACK*      CLEAR     30  16  55 N16G29    30.00R WCI  19
$$

NCZ012>017-030>032-281000-
NORTH CENTRAL AND EASTERN NORTH CAROLINA

CITY           SKY/WX    TMP DP  RH WIND       PRES   REMARKS
ROANOKE RAPIDS CLOUDY    32  19  59 NW6       30.05R
RALEIGH        PTCLDY    27  12  53 VRB6      30.07R
ELIZABETH CITY MOCLDY    30  20  66 NW12      30.01R WCI  20
AHOSKIE*       PTCLDY    29  21  72 CALM      30.05R
EDENTON*       CLOUDY    32  23  69 N8        30.02R
CURRITUCK*     CLEAR     31  19  61 N6        30.01R
KILL DEVIL HLS CLOUDY    32  24  72 NW7       29.98R
MANTEO         CLOUDY    32  21  64 NW12G18   30.00R WCI  23
CAPE HATTERAS  CLOUDY    35  26  69 N8        29.98R
TARBORO*       CLOUDY    32  20  61 NW6       30.06R
GOLDSBORO      CLEAR     29  22  74 NW1       30.04R
WASHINGTON     CLOUDY    32  21  65 N9        30.03R
GREENVILLE     MOCLDY    32  21  64 NW3       30.06R
NEW BERN       PTCLDY    32  23  69 NW7       30.04R
WILMINGTON     CLOUDY    32  17  54 N12       30.05R WCI  23
$$

VAZ048-281000-
ELSEWHERE

CITY           SKY/WX    TMP DP  RH WIND       PRES   REMARKS
HARRISBURG PA  PTCLDY    15   3  59 NW9       30.06R
BALTIMORE      PTCLDY    22   8  55 NW8       30.05R
ANNAPOLIS      CLEAR     26  12  55 NW21      30.05R WCI  12
ANDREWS AFB    CLEAR     23  10  56 NW14      30.05R WCI  11
PHILADELPHIA   PTCLDY    20   4  50 NW9       30.00S
HENDERSON NC   MOCLDY    27  13  55 NW9       30.05R
GREENSBORO     CLEAR     23  12  62 CALM      30.06R
ROCKY MOUNT    CLOUDY    30  17  58 NW9       30.06R
$$

VAZ100-281000-
MARINE

STATION/POSITION TIME  TEMP    WIND        PRES    WAVE   SWELL
                       AIR SEA DIR/SP/G            HT/PER HT/PER
                 (UTC) (F)     (DEG/KT/KT) (MB)    (FT/S) (FT/S)
BRANDYWINE LGT   0900   23 37  340/ 27/ 30 1015.2R
CAPE MAY NJ      0900   24 37   30/  2/  9 1014.7R
LEWES DE         0900   24 35  330/ 25/ 29 1015.6R
15NM E FENWICK I 0900   27 41              1013.4R   8/ 6
OCEAN-CITY-INLET 0900   25 38  360/ 18/ 22 1014.9R
WACHAPREAGUE VA  0900   29 38  330/  6/ 15 1015.4R
THOMAS POINT MD  0900   26 36  320/ 20/ 23 1018.4R
GOOSES REEF MD   0900   28     VRB 21/ 27  1016.0S
COVE POINT MD    0900   27     350/ 26/ 31 1016.7R
SOLOMONS ISLAND  0900      38                N/A
BISHOPS HEAD MD  0900   27 33  340/ 12/ 19 1016.1R
PINEY POINT MD   0900          350/ 23/ 27   N/A
POTOMAC MD       0900   29     350/ 17/ 21 1016.0S
CAMBRIDGE MD     0900   28 36  330/ 21/ 27 1016.6R
LEWISETTA VA     0900   28 36  340/ 15/ 22 1017.2R
RAPPAHANNOCK LGT 0900          340/ 29/ 32 1016.2R
STINGRAY PT      0900   30     340/ 17/ 23 1016.8R
YORK RVR RNG VA  0900   31     340/ 19/ 23 1015.7R
YORKTOWN VA      0900   30 40  340/ 16/ 20 1016.5R
JAMESTOWN VA     0900   29     360/ 12/ 16   N/A
DOMINION TERM VA 0900   31     350/ 13/ 17 1016.7R
KIPTOPEKE VA     0900      44  350/ 20/ 25   N/A
CHES BAY BRIDGE  0900   31 41  330/ 24/ 27 1015.8R
CAPE HENRY VA    0900   31     320/ 24/ 28 1014.5R
CHESAPEAKE LGHT  0800   33     330/ 28/ 31 1015.1R
WILLOUBY STN VA  0900   30     340/ 17/ 20 1016.9R
S CRANEY ISL VA  0900          350/ 17/ 22 1016.4R
CAPE HENRY BUOY  0900      44                N/A     6/ 5   2/13
1ST LANDING BUOY 0900   33     330/ 23/ 29 1015.4R
CAPE CHARLES BUO 0900      42                N/A     5/12   3/12
OFFSHORE WE BUOY 0900      45                N/A     8/13   5/13
64NM E OF VA BCH 0900   36 51  330/ 21/ 29 1013.3R  12/13  10/13
DUCK PIER NC     0900   33 42  330/ 17/ 21 1014.5R
44100 DUCK FRF   0900      45                N/A     9/13   5/13
44056 DUCK FRF   0900      43                N/A     7/14   5/14
OREGON INLET NC  0900   34 43  320/ 11/ 14 1015.2R
HATTERAS NC      0900   37 46  340/ 16/ 20 1015.3R


USA.gov is the U.S. government's official web portal to all federal, state and local government web resources and services.